User: anonymous   Login
Location: Columbia, SC
(34.0000°N, 81.0300°W)
Time: 19:38:19
(UTC-04:00)
Language:

Hubble Space Telescope - Orbit

View from above orbital plane
View from above orbital plane
View from above satellite
View from above satellite

Ground track
Ground track

The orbit data is extracted from the following two-line orbital elements,

1 20580U 90037B   19229.24922425  .00000220  00000-0  23634-5 0  9994
2 20580  28.4697 178.1056 0002772  52.6629 307.4244 15.09254046409899
Epoch (UTC): 17 August 2019 05:58:52
Eccentricity: 0.0002772
inclination: 28.4697°
perigee height: 536 km
apogee height: 540 km
right ascension of ascending node: 178.1056°
argument of perigee: 52.6629°
revolutions per day: 15.09254046
mean anomaly at epoch: 307.4244°
orbit number at epoch: 40989

The dashed part of the orbit path shows where the satellite is in the earth's shadow,  

DLR